Weather in Hnivan

Ukraine / Vinnytsia Region     49°05′36″N   28°20′16″E
В апреле 2022 года жителям России запретили посещать сайт meteo.paraplan.net по решению Генеральной прокуратуры. Аудитория сайта уменьшилась в 10 раз. Владельцы сайта не видят смысла в поддержке погодного сервера в таких условиях. Сайт будет закрыт в октябре.
temp.,
°C
wind,
m/s
gust,
m/s
humid.,
%
clouds,
%
prec.,
mm/h
press.,
hPa
HPBL,
m
25 september, sun
sun2500:00+6w35835 0.0 101868
03:00+6w358970 0.0 101983
06:00+5w35895 0.0 101982
09:00+9wsw357061 0.0 1018204
12:00+15wsw564993 0.0 10181361
15:00+15sw4447100 0.0 10161491
18:00+13ssw2259100 0.0 101527
21:00+12ssw3361100 0.0 101551
26 september, mon
mon2600:00+12ssw3461100 0.0 101587
03:00+11s226588 0.0 101325
06:00+12s2360100 0.0 101257
09:00+13sse2359100 0.0 1012132
12:00+18sse4545100 0.0 1010736
15:00+18wnw3451100 0.0 1010745
18:00+13n2477100 0.1 101094
21:00+11ne3381100 0.1 100956
27 september, tue
tue2700:00+12ene3579100 0.1 1008111
03:00+12ene3779100 0.2 1006156
06:00+12e3682100 0.2 1004179
09:00+11ene2595100 1.4 1003180
12:00+14sse3893100 0.1 1002511
15:00+14s2495100 0.2 1000253
18:00+14wnw3490100 0.1 1000257
21:00+10wnw3697100 0.1 1000141
28 september, wed
wed2800:00+10wnw3796100 0.0 1001209
03:00+10wnw4790100 0.0 1002413
06:00+11wnw468858 0.0 1002409
09:00+11wsw358542 0.0 1003211
12:00+16wsw566859 0.0 1003731
15:00+17w5662100 0.0 1004911
18:00+15w227216 0.0 100540
21:00+11ese11836 0.0 100710
29 september, thu
thu2900:00+10ese22865 0.0 100811
03:00+10ese349191 0.0 100861
06:00+9ese3793100 0.0 1008123
09:00+13se4981100 0.0 1008248
12:00+18sse5762100 0.0 1007537
15:00+21sse675170 0.0 10071407
18:00+19s2362100 0.0 100738
21:00+17se336698 0.1 100835